Location: Tr�vern
(48.0333°N, 4.6000°W)
Time: 07:06:53
(UTC+00:00)

Cosmos 1975 - Pass Details

Date: 14 July 2020
Orbit: 542 x 561 km, 82.5° (Epoch: 04 August)

Event Time Altitude Azimuth Distance (km) Brightness Sun altitude
Exits shadow 03:45:35 - 185° (S) 2,505 5.7 -7.1°
Reaches altitude 10° 03:47:16 10° 185° (S) 1,809 5.0 -6.9°
Maximum altitude 03:51:14 82° 99° (E) 556 2.9 -6.4°
Drops below altitude 10° 03:55:15 10° 11° (N) 1,819 6.4 -5.9°
Sets 03:57:25 0° 11° (N) 2,716 7.3 -5.6°
